,,PA_Meas_PMT16A,,PR_Meas_QMR101_102,,RH_Meas_QMH101,,SR_Meas_QMS101,,TA_Meas_QMH101,,GenWind,,GenWind,
time,status,PA,status,PR,status,RH,status,SR,status,TA,status,DirAvg,status,SpdAvg,
2016-09-29, 00:00:04,VALID,915.047,VALID,0,VALID,75.8377,VALID,103.681,VALID,23.4614,VALID,277,VALID,3.36641,
2016-09-29, 00:01:04,VALID,915.385,VALID,0,VALID,76.5696,VALID,120.656,VALID,23.4632,VALID,274,VALID,0.00195313,
2016-09-29, 00:03:04,VALID,915.407,VALID,0,VALID,76.9584,VALID,116.144,VALID,23.5199,VALID,271,VALID,0,
2016-09-29, 00:04:04,VALID,916.573,VALID,0,VALID,78.1476,VALID,120.227,VALID,23.6388,VALID,5,VALID,0,
2016-09-29, 00:05:04,VALID,915.353,VALID,0,VALID,77.2786,VALID,122.59,VALID,23.6388,VALID,302,VALID,0.357812,
2016-09-29, 14:15:04,VALID,917.547,VALID,0,INVALID,116.981,VALID,149.128,VALID,19.7823,VALID,125,VALID,0,
2016-09-29, 14:16:04,VALID,917.597,VALID,0,INVALID,116.547,VALID,149.88,VALID,19.8798,VALID,133,VALID,0,
2016-09-29, 14:17:04,VALID,917.578,VALID,0,INVALID,115.64,VALID,150.525,VALID,19.9758,VALID,135,VALID,0,
2016-09-29, 14:18:04,VALID,917.604,VALID,0,INVALID,114.633,VALID,151.492,VALID,20.0944,VALID,128,VALID,0,
2016-09-29, 14:19:04,VALID,917.608,VALID,0,INVALID,114.382,VALID,152.029,VALID,20.2098,VALID,135,VALID,0,
2016-09-29, 14:20:04,VALID,917.638,VALID,0,INVALID,112.567,VALID,153.426,VALID,20.2684,VALID,144,VALID,0,
2016-09-29, 14:21:04,VALID,917.626,VALID,0,VALID,97.8084,VALID,152.996,VALID,20.3269,VALID,152,VALID,0,
2016-09-29, 14:22:04,VALID,917.644,VALID,0,VALID,94.294,VALID,153.641,VALID,20.3854,VALID,146,VALID,0,
2016-09-29, 14:23:04,VALID,917.621,VALID,0,VALID,93.3564,VALID,155.038,VALID,20.4244,VALID,160,VALID,0,
2016-09-29, 14:24:04,VALID,917.629,VALID,0,VALID,92.4873,VALID,155.038,VALID,20.4064,VALID,160,VALID,0,
2016-09-29, 14:25:04,VALID,917.663,VALID,0,VALID,101.071,VALID,158.476,VALID,20.4454,VALID,160,VALID,0,
2016-09-29, 14:26:04,VALID,917.65,VALID,0,VALID,104,VALID,162.773,VALID,20.4454,VALID,125,VALID,0,
2016-09-29, 14:27:04,VALID,917.688,VALID,0,VALID,104,VALID,159.013,VALID,20.465,VALID,109,VALID,0,
2016-09-29, 14:28:04,VALID,917.698,VALID,0,INVALID,112.613,VALID,167.071,VALID,20.543,VALID,109,VALID,0,
2016-09-29, 14:29:04,VALID,917.697,VALID,0,VALID,104,VALID,183.509,VALID,20.543,VALID,110,VALID,1.19609,
2016-09-29, 14:30:04,VALID,917.698,VALID,0,VALID,104,VALID,198.659,VALID,20.582,VALID,109,VALID,1.51719,
2016-09-29, 14:31:04,VALID,917.651,VALID,0,VALID,104,VALID,202.956,VALID,20.6015,VALID,105,VALID,1.81562,
2016-09-29, 14:32:04,VALID,917.677,VALID,0,VALID,104,VALID,204.675,VALID,20.582,VALID,109,VALID,1.54609,
2016-09-29, 14:33:04,VALID,917.655,VALID,0,INVALID,112.453,VALID,206.932,VALID,20.699,VALID,118,VALID,0,
2016-09-29, 14:34:04,VALID,917.68,VALID,0,VALID,95.7577,VALID,214.56,VALID,20.717,VALID,127,VALID,0,
2016-09-29, 14:35:04,VALID,917.685,VALID,0,VALID,104,VALID,223.37,VALID,20.834,VALID,119,VALID,0,
2016-09-29, 14:36:04,VALID,917.713,VALID,0,VALID,94.6066,VALID,227.668,VALID,20.9331,VALID,134,VALID,0,
2016-09-29, 14:37:04,VALID,917.738,VALID,0,VALID,99.3407,VALID,231.106,VALID,21.0096,VALID,151,VALID,0,
2016-09-29, 14:38:04,VALID,917.721,VALID,0,VALID,96.2609,VALID,237.982,VALID,21.0096,VALID,164,VALID,0,
2016-09-29, 14:39:04,VALID,917.758,VALID,0,VALID,89.9487,VALID,239.057,VALID,21.0291,VALID,156,VALID,0,
2016-09-29, 14:40:04,VALID,917.732,VALID,0,VALID,88.0581,VALID,240.238,VALID,21.0291,VALID,155,VALID,0,
2016-09-29, 14:41:04,VALID,917.722,VALID,0,VALID,87.4025,VALID,238.197,VALID,21.0486,VALID,152,VALID,0,
2016-09-29, 14:42:04,VALID,917.712,VALID,0,VALID,90.4899,VALID,241.85,VALID,21.0665,VALID,156,VALID,0,
2016-09-29, 14:43:04,VALID,917.683,VALID,0,VALID,84.2006,VALID,238.304,VALID,21.047,VALID,157,VALID,1.33398,
2016-09-29, 14:44:04,VALID,917.697,VALID,0,VALID,84.2159,VALID,232.18,VALID,21.1266,VALID,174,VALID,0.539063,
2016-09-29, 14:45:04,VALID,917.695,VALID,0,VALID,83.4459,VALID,221.866,VALID,21.2226,VALID,171,VALID,0,
2016-09-29, 14:46:04,VALID,917.686,VALID,0,VALID,81.6239,VALID,214.56,VALID,21.3217,VALID,171,VALID,0,
2016-09-29, 14:47:04,VALID,917.684,VALID,0,VALID,79.9468,VALID,206.932,VALID,21.3803,VALID,152,VALID,0,
2016-09-29, 14:48:04,VALID,917.671,VALID,0,VALID,81.6849,VALID,202.956,VALID,21.4567,VALID,161,VALID,0,
2016-09-29, 14:49:04,VALID,917.728,VALID,0,VALID,80.3508,VALID,201.452,VALID,21.6534,VALID,161,VALID,0,
2016-09-29, 14:50:04,VALID,917.734,VALID,0,VALID,78.5898,VALID,204.031,VALID,21.829,VALID,161,VALID,0,
2016-09-29, 14:51:04,VALID,917.753,VALID,0,VALID,81.5096,VALID,213.808,VALID,21.9851,VALID,161,VALID,0,
2016-09-29, 14:52:04,VALID,917.794,VALID,0,VALID,79.7714,VALID,211.981,VALID,22.0437,VALID,161,VALID,0,
2016-09-29, 14:53:04,VALID,917.802,VALID,0,VALID,74.5341,VALID,212.841,VALID,22.1413,VALID,161,VALID,0,
2016-09-29, 14:54:04,VALID,917.809,VALID,0,VALID,75.7158,VALID,222.726,VALID,22.3169,VALID,174,VALID,0,
2016-09-29, 14:55:04,VALID,917.818,VALID,0,VALID,74.5875,VALID,227.345,VALID,22.4323,VALID,139,VALID,0,
2016-09-29, 14:56:04,VALID,917.813,VALID,0,VALID,77.0727,VALID,228.742,VALID,22.5316,VALID,166,VALID,0,
2016-09-29, 14:57:04,VALID,917.86,VALID,0,VALID,67.2462,VALID,234.007,VALID,22.5706,VALID,226,VALID,0,
2016-09-29, 14:58:04,VALID,917.863,VALID,0,VALID,73.8861,VALID,244.321,VALID,22.6877,VALID,210,VALID,0,
2016-09-29, 14:59:04,VALID,917.879,VALID,0,VALID,69.9448,VALID,258.181,VALID,22.7267,VALID,210,VALID,0,
2016-09-29, 15:00:04,VALID,917.92,VALID,0,VALID,67.1013,VALID,265.809,VALID,22.8048,VALID,228,VALID,0,
2016-09-29, 15:01:04,VALID,917.912,VALID,0,VALID,67.2614,VALID,226.593,VALID,22.8031,VALID,232,VALID,0,
2016-09-29, 15:02:04,VALID,917.922,VALID,0,VALID,66.3161,VALID,229.387,VALID,22.8031,VALID,208,VALID,0,
2016-09-29, 15:03:04,VALID,917.95,VALID,0,VALID,66.6287,VALID,276.661,VALID,22.9202,VALID,248,VALID,0,
2016-09-29, 15:04:04,VALID,917.952,VALID,0,VALID,65.3251,VALID,289.554,VALID,22.9983,VALID,221,VALID,0,
2016-09-29, 15:05:04,VALID,917.983,VALID,0,VALID,66.4305,VALID,286.438,VALID,23.0763,VALID,216,VALID,0,
2016-09-29, 15:06:04,VALID,918.015,VALID,0,VALID,64.8829,VALID,295.356,VALID,23.1935,VALID,205,VALID,0,
2016-09-29, 15:07:04,VALID,918.013,VALID,0,VALID,62.3595,VALID,278.917,VALID,23.2698,VALID,243,VALID,0,
2016-09-29, 15:08:04,VALID,918.039,VALID,0,VALID,64.6923,VALID,255.388,VALID,23.3301,VALID,244,VALID,0,
2016-09-29, 15:09:04,VALID,918.077,VALID,0,VALID,65.6681,VALID,212.948,VALID,23.3691,VALID,244,VALID,0,
2016-09-29, 15:10:04,VALID,918.088,VALID,0,VALID,62.1918,VALID,201.237,VALID,23.3301,VALID,243,VALID,0,
2016-09-29, 15:11:04,VALID,918.073,VALID,0,VALID,62.0927,VALID,223.478,VALID,23.2502,VALID,236,VALID,0,
2016-09-29, 15:12:04,VALID,918.096,VALID,0,VALID,64.2806,VALID,285.901,VALID,23.2502,VALID,227,VALID,0,
2016-09-29, 15:13:04,VALID,918.105,VALID,0,VALID,65.8892,VALID,253.239,VALID,23.3478,VALID,214,VALID,0,
2016-09-29, 15:14:04,VALID,918.11,VALID,0,VALID,64.0824,VALID,212.304,VALID,23.3088,VALID,240,VALID,0,
2016-09-29, 15:15:04,VALID,918.124,VALID,0,VALID,65.0811,VALID,229.279,VALID,23.2698,VALID,245,VALID,0,
2016-09-29, 15:16:04,VALID,918.154,VALID,0,VALID,64.2044,VALID,289.661,VALID,23.252,VALID,254,VALID,0,
2016-09-29, 15:17:04,VALID,918.169,VALID,0,VALID,63.6327,VALID,251.627,VALID,23.2112,VALID,273,VALID,0,
2016-09-29, 15:18:04,VALID,918.188,VALID,0,VALID,67.7417,VALID,304.488,VALID,23.2112,VALID,278,VALID,0,
2016-09-29, 15:19:04,VALID,918.208,VALID,0,VALID,67.9018,VALID,333.068,VALID,23.1739,VALID,278,VALID,0,
2016-09-29, 15:20:04,VALID,918.19,VALID,0,VALID,68.2143,VALID,297.075,VALID,23.1739,VALID,278,VALID,0,
2016-09-29, 15:21:04,VALID,918.206,VALID,0,VALID,68.2296,VALID,274.727,VALID,23.2325,VALID,278,VALID,0,
2016-09-29, 15:22:04,VALID,918.221,VALID,0,VALID,70.8063,VALID,222.94,VALID,23.3887,VALID,279,VALID,0,
2016-09-29, 15:23:04,VALID,918.191,VALID,0,VALID,66.9946,VALID,271.719,VALID,23.4667,VALID,255,VALID,0,
2016-09-29, 15:24:04,VALID,918.221,VALID,0,VALID,66.4305,VALID,303.844,VALID,23.4277,VALID,253,VALID,0,
2016-09-29, 15:25:04,VALID,918.236,VALID,0,VALID,67.9323,VALID,297.612,VALID,23.3674,VALID,317,VALID,0,
2016-09-29, 15:26:04,VALID,918.215,VALID,0,VALID,63.9833,VALID,252.487,VALID,23.4667,VALID,315,VALID,0,
2016-09-29, 15:27:04,VALID,918.201,VALID,0,VALID,65.2717,VALID,252.487,VALID,23.4845,VALID,16,VALID,0,
2016-09-29, 15:28:04,VALID,918.228,VALID,0,VALID,67.4901,VALID,302.447,VALID,23.4454,VALID,257,VALID,0,
2016-09-29, 15:29:04,VALID,918.245,VALID,0,VALID,67.7798,VALID,296.645,VALID,23.465,VALID,257,VALID,0,
2016-09-29, 15:30:04,VALID,918.244,VALID,0,VALID,67.6273,VALID,278.917,VALID,23.4667,VALID,239,VALID,0,
2016-09-29, 15:31:04,VALID,918.301,VALID,0,VALID,69.3578,VALID,286.223,VALID,23.4064,VALID,251,VALID,0,
2016-09-29, 15:32:04,VALID,918.286,VALID,0,VALID,67.513,VALID,275.157,VALID,23.3691,VALID,251,VALID,0,
2016-09-29, 15:33:04,VALID,918.265,VALID,0,VALID,68.4202,VALID,310.505,VALID,23.2893,VALID,227,VALID,0,
2016-09-29, 15:34:04,VALID,918.293,VALID,0,VALID,69.9906,VALID,355.845,VALID,23.3478,VALID,6,VALID,0,
2016-09-29, 15:35:04,VALID,918.297,VALID,0,VALID,65.0506,VALID,348.754,VALID,23.4064,VALID,232,VALID,0,
2016-09-29, 15:36:04,VALID,918.317,VALID,0,VALID,68.8852,VALID,352.837,VALID,23.5626,VALID,268,VALID,0,
2016-09-29, 15:37:04,VALID,918.321,VALID,0,VALID,68.0771,VALID,338.01,VALID,23.7187,VALID,268,VALID,0,
2016-09-29, 15:38:04,VALID,918.311,VALID,0,VALID,66.3923,VALID,363.259,VALID,23.8145,VALID,255,VALID,0,
2016-09-29, 15:39:04,VALID,918.292,VALID,0,VALID,67.9551,VALID,380.019,VALID,23.8749,VALID,255,VALID,0,
2016-09-29, 15:40:04,VALID,918.263,VALID,0,VALID,66.8421,VALID,384.854,VALID,23.8944,VALID,256,VALID,0,
2016-09-29, 15:41:04,VALID,918.276,VALID,0,VALID,67.1242,VALID,390.549,VALID,23.992,VALID,256,VALID,0,
2016-09-29, 15:42:04,VALID,918.289,VALID,0,VALID,66.987,VALID,383.243,VALID,24.1073,VALID,256,VALID,0,
2016-09-29, 15:43:04,VALID,918.27,VALID,0,VALID,62.3672,VALID,365.837,VALID,24.0292,VALID,267,VALID,0,
2016-09-29, 15:44:04,VALID,918.29,VALID,0,VALID,64.6542,VALID,362.506,VALID,24.0915,VALID,268,VALID,0,
2016-09-29, 15:45:04,VALID,918.326,VALID,0,VALID,65.5614,VALID,359.068,VALID,24.244,VALID,268,VALID,0,
2016-09-29, 15:46:04,VALID,918.363,VALID,0,VALID,64.0672,VALID,343.274,VALID,24.3416,VALID,260,VALID,0,
2016-09-29, 15:47:04,VALID,918.342,VALID,0,VALID,66.5295,VALID,362.721,VALID,24.283,VALID,249,VALID,0,
2016-09-29, 15:48:04,VALID,918.411,VALID,0,VALID,66.743,VALID,311.902,VALID,24.283,VALID,255,VALID,0,
2016-09-29, 15:49:04,VALID,918.4,VALID,0,VALID,66.5905,VALID,265.057,VALID,24.2049,VALID,334,VALID,0,
2016-09-29, 15:50:04,VALID,918.424,VALID,0,VALID,64.7076,VALID,354.341,VALID,24.2031,VALID,257,VALID,0,
2016-09-29, 15:51:04,VALID,918.415,VALID,0,VALID,64.9972,VALID,327.051,VALID,24.1677,VALID,317,VALID,0,
2016-09-29, 15:52:04,VALID,918.402,VALID,0,VALID,66.987,VALID,326.836,VALID,24.1269,VALID,319,VALID,0,
2016-09-29, 15:53:04,VALID,918.404,VALID,0,VALID,67.6578,VALID,331.563,VALID,24.1092,VALID,304,VALID,0,
2016-09-29, 15:54:04,VALID,918.353,VALID,0,VALID,67.1166,VALID,317.489,VALID,24.0311,VALID,270,VALID,0,
2016-09-29, 15:55:04,VALID,918.381,VALID,0,VALID,66.2551,VALID,336.721,VALID,23.9316,VALID,270,VALID,0,
2016-09-29, 15:56:04,VALID,918.371,VALID,0,VALID,68.0237,VALID,360.787,VALID,23.9139,VALID,275,VALID,0,
2016-09-29, 15:57:04,VALID,918.369,VALID,0,VALID,69.2054,VALID,391.73,VALID,23.9316,VALID,324,VALID,0,
2016-09-29, 15:58:04,VALID,918.325,VALID,0,VALID,68.8852,VALID,392.375,VALID,24.1073,VALID,324,VALID,0,
2016-09-29, 15:59:04,VALID,918.373,VALID,0,VALID,66.1865,VALID,403.119,VALID,24.2049,VALID,266,VALID,0.267188,
2016-09-29, 16:00:04,VALID,918.341,VALID,0,VALID,66.2399,VALID,427.186,VALID,24.1269,VALID,289,VALID,0,
2016-09-29, 16:01:04,VALID,918.349,VALID,0,VALID,65.0277,VALID,428.368,VALID,23.9707,VALID,247,VALID,0,
2016-09-29, 16:02:04,VALID,918.339,VALID,0,VALID,67.9551,VALID,417.624,VALID,23.8713,VALID,312,VALID,0,
2016-09-29, 16:03:04,VALID,918.347,VALID,0,VALID,68.0009,VALID,393.879,VALID,23.8926,VALID,322,VALID,0,
2016-09-29, 16:04:04,VALID,918.355,VALID,0,VALID,68.7327,VALID,404.731,VALID,24.0878,VALID,322,VALID,0,
2016-09-29, 16:05:04,VALID,918.365,VALID,0,VALID,67.6883,VALID,411.715,VALID,24.2812,VALID,322,VALID,0,
2016-09-29, 16:06:04,VALID,918.353,VALID,0,VALID,65.3403,VALID,418.161,VALID,24.3788,VALID,280,VALID,0,
2016-09-29, 16:07:04,VALID,918.346,VALID,0,VALID,66.4457,VALID,455.013,VALID,24.3398,VALID,288,VALID,0,
2016-09-29, 16:09:04,VALID,918.361,VALID,0,VALID,67.5206,VALID,472.526,VALID,24.4587,VALID,3,VALID,0,
2016-09-29, 16:10:04,VALID,918.381,VALID,0,VALID,66.9641,VALID,460.063,VALID,24.5935,VALID,11,VALID,0,
2016-09-29, 16:11:04,VALID,918.385,VALID,0,VALID,65.6681,VALID,414.938,VALID,24.7693,VALID,357,VALID,0,
2016-09-29, 16:12:04,VALID,918.38,VALID,0,VALID,65.9578,VALID,421.062,VALID,24.7107,VALID,297,VALID,0,
2016-09-29, 16:13:04,VALID,918.418,VALID,0,VALID,65.8816,VALID,403.012,VALID,24.6912,VALID,298,VALID,0,
2016-09-29, 16:14:04,VALID,918.383,VALID,0,VALID,66.1484,VALID,412.574,VALID,24.8474,VALID,298,VALID,0,
2016-09-29, 16:15:04,VALID,918.384,VALID,0,VALID,66.6591,VALID,389.152,VALID,24.984,VALID,298,VALID,0,
2016-09-29, 16:16:04,VALID,918.389,VALID,0,VALID,64.9668,VALID,394.846,VALID,25.1207,VALID,340,VALID,0,
2016-09-29, 16:17:04,VALID,918.388,VALID,0,VALID,61.7802,VALID,379.267,VALID,25.1226,VALID,297,VALID,0,
2016-09-29, 16:18:04,VALID,918.414,VALID,0,VALID,63.3353,VALID,407.847,VALID,24.8688,VALID,282,VALID,0,
2016-09-29, 16:19:04,VALID,918.446,VALID,0,VALID,64.9058,VALID,422.459,VALID,24.8669,VALID,280,VALID,0,
2016-09-29, 16:20:04,VALID,918.477,VALID,0,VALID,65.8663,VALID,432.128,VALID,24.9059,VALID,259,VALID,0,
2016-09-29, 16:21:04,VALID,918.469,VALID,0,VALID,66.6744,VALID,413.326,VALID,24.7497,VALID,244,VALID,0,
2016-09-29, 16:22:04,VALID,918.474,VALID,0,VALID,70.1812,VALID,426.541,VALID,24.7888,VALID,327,VALID,0.111719,
2016-09-29, 16:23:04,VALID,918.508,VALID,0,VALID,67.6502,VALID,435.029,VALID,24.8669,VALID,33,VALID,0,
2016-09-29, 16:24:04,VALID,918.509,VALID,0,VALID,67.3681,VALID,466.402,VALID,24.984,VALID,32,VALID,0,
2016-09-29, 16:25:04,VALID,918.532,VALID,0,VALID,68.0466,VALID,456.84,VALID,25.1207,VALID,1,VALID,0,
2016-09-29, 16:26:04,VALID,918.487,VALID,0,VALID,67.8484,VALID,467.369,VALID,25.1793,VALID,353,VALID,0,
2016-09-29, 16:27:04,VALID,918.554,VALID,0,VALID,65.9349,VALID,484.882,VALID,25.2965,VALID,36,VALID,0,
2016-09-29, 16:28:04,VALID,918.512,VALID,0,VALID,67.1623,VALID,449.534,VALID,25.4937,VALID,19,VALID,0.0796875,
2016-09-29, 16:29:04,VALID,918.555,VALID,0,VALID,63.869,VALID,474.997,VALID,25.4331,VALID,19,VALID,0,
2016-09-29, 16:30:04,VALID,918.536,VALID,0,VALID,62.8398,VALID,484.774,VALID,25.2945,VALID,360,VALID,0,
2016-09-29, 16:31:04,VALID,918.514,VALID,0,VALID,63.0685,VALID,482.518,VALID,25.3141,VALID,10,VALID,0.5125,
2016-09-29, 16:32:04,VALID,918.553,VALID,0,VALID,62.5196,VALID,495.411,VALID,25.2769,VALID,255,VALID,0.0417969,
2016-09-29, 16:33:04,VALID,918.53,VALID,0,VALID,60.9187,VALID,507.874,VALID,25.2769,VALID,321,VALID,0,
2016-09-29, 16:34:04,VALID,918.542,VALID,0,VALID,61.7116,VALID,531.297,VALID,25.1402,VALID,338,VALID,0,
2016-09-29, 16:35:04,VALID,918.544,VALID,0,VALID,62.977,VALID,537.85,VALID,25.0407,VALID,353,VALID,0.437891,
2016-09-29, 16:36:04,VALID,918.527,VALID,0,VALID,64.5551,VALID,517.222,VALID,25.0036,VALID,6,VALID,0,
2016-09-29, 16:37:04,VALID,918.526,VALID,0,VALID,64.3188,VALID,490.899,VALID,25.0231,VALID,357,VALID,0,
2016-09-29, 16:38:04,VALID,918.536,VALID,0,VALID,64.273,VALID,502.395,VALID,25.0407,VALID,21,VALID,0,
2016-09-29, 16:39:04,VALID,918.586,VALID,0,VALID,62.39,VALID,508.734,VALID,25.1579,VALID,244,VALID,0.188672,
2016-09-29, 16:40:04,VALID,918.575,VALID,0,VALID,62.6721,VALID,508.519,VALID,25.2945,VALID,25,VALID,0.360547,
2016-09-29, 16:41:04,VALID,918.577,VALID,0,VALID,64.0596,VALID,466.832,VALID,25.2945,VALID,16,VALID,0,
2016-09-29, 16:42:04,VALID,918.587,VALID,0,VALID,63.1448,VALID,472.849,VALID,25.355,VALID,15,VALID,0,
2016-09-29, 16:43:04,VALID,918.558,VALID,0,VALID,61.3228,VALID,484.237,VALID,25.275,VALID,17,VALID,0,
2016-09-29, 16:44:04,VALID,918.556,VALID,0,VALID,61.4295,VALID,498.634,VALID,25.0602,VALID,315,VALID,0.0957031,
2016-09-29, 16:45:04,VALID,918.543,VALID,0,VALID,64.151,VALID,486.494,VALID,24.8845,VALID,318,VALID,0,
2016-09-29, 16:46:04,VALID,918.549,VALID,0,VALID,66.0493,VALID,475.32,VALID,24.8436,VALID,13,VALID,0.527344,
2016-09-29, 16:47:04,VALID,918.563,VALID,0,VALID,65.9654,VALID,478.865,VALID,24.9021,VALID,15,VALID,0,
2016-09-29, 16:48:04,VALID,918.556,VALID,0,VALID,64.0291,VALID,463.609,VALID,24.8241,VALID,297,VALID,0.210156,
2016-09-29, 16:49:04,VALID,918.568,VALID,0,VALID,68.4507,VALID,450.823,VALID,24.8455,VALID,29,VALID,0,
2016-09-29, 16:50:04,VALID,918.61,VALID,0,VALID,68.5421,VALID,466.724,VALID,24.9802,VALID,16,VALID,0,
2016-09-29, 16:51:04,VALID,918.646,VALID,0,VALID,67.6578,VALID,453.079,VALID,25.1969,VALID,15,VALID,0,
2016-09-29, 16:52:04,VALID,918.665,VALID,0,VALID,62.2223,VALID,473.493,VALID,25.234,VALID,309,VALID,0,
2016-09-29, 16:53:04,VALID,918.646,VALID,0,VALID,63.7013,VALID,470.27,VALID,25.0974,VALID,29,VALID,0.0210938,
2016-09-29, 16:54:04,VALID,918.709,VALID,0,VALID,67.4062,VALID,454.906,VALID,25.1169,VALID,29,VALID,0.040625,
2016-09-29, 16:55:04,VALID,918.728,VALID,0,VALID,65.9426,VALID,472.956,VALID,25.2731,VALID,7,VALID,0,
2016-09-29, 16:56:04,VALID,918.745,VALID,0,VALID,65.813,VALID,448.03,VALID,25.2731,VALID,342,VALID,0,
2016-09-29, 16:57:04,VALID,918.677,VALID,0,VALID,62.8322,VALID,464.038,VALID,25.2536,VALID,357,VALID,0.289453,
2016-09-29, 16:58:04,VALID,918.685,VALID,0,VALID,66.2246,VALID,467.691,VALID,25.0974,VALID,326,VALID,0,
2016-09-29, 16:59:04,VALID,918.672,VALID,0,VALID,65.7672,VALID,475.642,VALID,24.8826,VALID,42,VALID,1.31172,
2016-09-29, 17:00:04,VALID,918.638,VALID,0,VALID,63.1066,VALID,514.643,VALID,24.785,VALID,340,VALID,0,
2016-09-29, 17:01:04,VALID,918.664,VALID,0,VALID,64.86,VALID,505.725,VALID,24.7051,VALID,297,VALID,0,
2016-09-29, 17:02:04,VALID,918.663,VALID,0,VALID,67.1318,VALID,477.361,VALID,24.865,VALID,344,VALID,0,
2016-09-29, 17:03:04,VALID,918.657,VALID,0,VALID,70.1049,VALID,489.717,VALID,24.9412,VALID,354,VALID,0.592188,
2016-09-29, 17:04:04,VALID,918.662,VALID,0,VALID,66.6744,VALID,474.03,VALID,25.0388,VALID,2,VALID,1.01523,
2016-09-29, 17:05:04,VALID,918.604,VALID,0,VALID,65.7062,VALID,530.437,VALID,25.0407,VALID,36,VALID,0.902344,
2016-09-29, 17:06:04,VALID,918.662,VALID,0,VALID,67.2766,VALID,540.429,VALID,25.0602,VALID,19,VALID,1.81445,
2016-09-29, 17:07:04,VALID,918.619,VALID,0,VALID,65.2183,VALID,543.76,VALID,25.1188,VALID,42,VALID,0.825,
2016-09-29, 17:08:04,VALID,918.646,VALID,0,VALID,65.973,VALID,521.627,VALID,25.2164,VALID,14,VALID,0,
2016-09-29, 17:09:04,VALID,918.703,VALID,0,VALID,66.743,VALID,522.379,VALID,25.2555,VALID,29,VALID,0,
2016-09-29, 17:10:04,VALID,918.66,VALID,0,VALID,63.221,VALID,523.99,VALID,25.3512,VALID,197,VALID,0.0882813,
2016-09-29, 17:11:04,VALID,918.7,VALID,0,VALID,67.1699,VALID,512.387,VALID,25.3726,VALID,9,VALID,0.837109,
2016-09-29, 17:12:04,VALID,918.74,VALID,0,VALID,66.4305,VALID,529.685,VALID,25.3531,VALID,347,VALID,0.0679687,
2016-09-29, 17:13:04,VALID,918.745,VALID,0,VALID,64.2502,VALID,524.635,VALID,25.2945,VALID,315,VALID,0,
2016-09-29, 17:14:04,VALID,918.791,VALID,0,VALID,66.7125,VALID,558.909,VALID,25.2945,VALID,14,VALID,0.141016,
2016-09-29, 17:15:04,VALID,918.805,VALID,0,VALID,68.039,VALID,551.818,VALID,25.3902,VALID,7,VALID,0,
2016-09-29, 17:16:04,VALID,918.82,VALID,0,VALID,66.156,VALID,600.274,VALID,25.5269,VALID,313,VALID,0.00078125,
2016-09-29, 17:17:04,VALID,918.818,VALID,0,VALID,64.212,VALID,609.406,VALID,25.5464,VALID,243,VALID,1.19219,
2016-09-29, 17:18:04,VALID,918.748,VALID,0,VALID,66.6363,VALID,630.25,VALID,25.1169,VALID,318,VALID,1.84727,
2016-09-29, 17:19:04,VALID,918.735,VALID,0,VALID,64.7076,VALID,650.664,VALID,24.9802,VALID,326,VALID,0,
2016-09-29, 17:20:04,VALID,918.75,VALID,0,VALID,66.0493,VALID,645.721,VALID,24.9998,VALID,242,VALID,0,
2016-09-29, 17:21:04,VALID,918.689,VALID,0,VALID,67.7036,VALID,614.134,VALID,25.2536,VALID,185,VALID,0,
2016-09-29, 17:22:04,VALID,918.711,VALID,0,VALID,66.217,VALID,652.598,VALID,25.5269,VALID,84,VALID,0.0277344,
2016-09-29, 17:23:04,VALID,918.682,VALID,0,VALID,64.0596,VALID,651.523,VALID,25.6636,VALID,30,VALID,0,
2016-09-29, 17:24:04,VALID,918.672,VALID,0,VALID,66.9565,VALID,658.077,VALID,25.7808,VALID,21,VALID,0,
2016-09-29, 17:25:04,VALID,918.72,VALID,0,VALID,65.9807,VALID,617.894,VALID,26.0346,VALID,2,VALID,0,
2016-09-29, 17:26:04,VALID,918.68,VALID,0,VALID,61.8488,VALID,636.374,VALID,26.1518,VALID,3,VALID,0,
2016-09-29, 17:27:04,VALID,918.667,VALID,0,VALID,63.6936,VALID,704.384,VALID,26.1733,VALID,337,VALID,0.0113281,
2016-09-29, 17:28:04,VALID,918.679,VALID,0,VALID,63.3277,VALID,728.021,VALID,26.1127,VALID,305,VALID,0,
2016-09-29, 17:29:04,VALID,918.588,VALID,0,VALID,63.3582,VALID,712.55,VALID,26.1713,VALID,236,VALID,0,
2016-09-29, 17:30:04,VALID,918.645,VALID,0,VALID,61.8869,VALID,712.872,VALID,26.0932,VALID,229,VALID,1.89375,
2016-09-29, 17:31:04,VALID,918.609,VALID,0,VALID,62.4663,VALID,716.847,VALID,25.6636,VALID,263,VALID,1.18281,
2016-09-29, 17:32:04,VALID,918.618,VALID,0,VALID,68.8013,VALID,693.855,VALID,25.4488,VALID,335,VALID,0,
2016-09-29, 17:33:04,VALID,918.573,VALID,0,VALID,65.7138,VALID,680.532,VALID,25.4293,VALID,23,VALID,1.49063,
2016-09-29, 17:34:04,VALID,918.589,VALID,0,VALID,66.8955,VALID,629.82,VALID,25.4098,VALID,29,VALID,0.415234,
2016-09-29, 17:35:04,VALID,918.625,VALID,0,VALID,67.4749,VALID,520.66,VALID,25.3902,VALID,350,VALID,2.47031,
2016-09-29, 17:36:04,VALID,918.665,VALID,0,VALID,66.2627,VALID,531.726,VALID,25.2731,VALID,244,VALID,0.255078,
2016-09-29, 17:37:04,VALID,918.636,VALID,0,VALID,67.1928,VALID,617.464,VALID,25.1383,VALID,257,VALID,0.178516,
2016-09-29, 17:38:04,VALID,918.665,VALID,0,VALID,67.856,VALID,626.489,VALID,25.1559,VALID,31,VALID,2.04648,
2016-09-29, 17:39:04,VALID,918.656,VALID,0,VALID,66.0035,VALID,630.68,VALID,25.2731,VALID,43,VALID,1.4582,
2016-09-29, 17:40:04,VALID,918.657,VALID,0,VALID,65.8587,VALID,368.308,VALID,25.5074,VALID,351,VALID,1.38125,
2016-09-29, 17:41:04,VALID,918.705,VALID,0,VALID,65.508,VALID,381.631,VALID,25.4098,VALID,321,VALID,0.742969,
2016-09-29, 17:42:04,VALID,918.711,VALID,0,VALID,67.0784,VALID,700.731,VALID,25.2926,VALID,266,VALID,0.306641,
2016-09-29, 17:43:04,VALID,918.71,VALID,0,VALID,67.0327,VALID,739.947,VALID,25.4879,VALID,289,VALID,0.0078125,
2016-09-29, 17:44:04,VALID,918.726,VALID,0,VALID,65.6452,VALID,716.31,VALID,25.6245,VALID,236,VALID,0.215234,
2016-09-29, 17:45:04,VALID,918.681,VALID,0,VALID,70.1431,VALID,705.781,VALID,25.5054,VALID,258,VALID,0.548828,
2016-09-29, 17:46:04,VALID,918.749,VALID,0,VALID,66.0416,VALID,623.159,VALID,25.6226,VALID,100,VALID,0,
2016-09-29, 17:47:04,VALID,918.593,VALID,0,VALID,63.5336,VALID,704.169,VALID,25.7983,VALID,282,VALID,1.06328,
2016-09-29, 17:48:04,VALID,918.749,VALID,0,VALID,65.5385,VALID,659.904,VALID,25.605,VALID,270,VALID,0.0421875,
2016-09-29, 17:49:04,VALID,918.79,VALID,0,VALID,65.9044,VALID,713.302,VALID,25.3297,VALID,259,VALID,0.114844,
2016-09-29, 17:50:04,VALID,918.785,VALID,0,VALID,67.9856,VALID,790.982,VALID,25.3102,VALID,253,VALID,0,
2016-09-29, 17:51:04,VALID,918.75,VALID,0,VALID,68.2448,VALID,732.104,VALID,25.4879,VALID,81,VALID,0.00664063,
2016-09-29, 17:52:04,VALID,918.739,VALID,0,VALID,66.4762,VALID,836.967,VALID,25.6441,VALID,64,VALID,0,
2016-09-29, 17:53:04,VALID,918.776,VALID,0,VALID,67.3605,VALID,671.937,VALID,25.7612,VALID,203,VALID,0,
2016-09-29, 17:54:04,VALID,918.744,VALID,0,VALID,64.7685,VALID,818.057,VALID,25.8569,VALID,262,VALID,0.283203,